Regional Weather Roundup
Issued by NWS

Home | Current Version | Previous Version | Graphics & Text | Print | Product List | Glossary On
Versions: 1 2 3 4 5 6 7 8 9 10 11 12 13 14 15 16 17 18 19 20 21 22 23 24 25 26 27 28 29 30 31 32 33 34 35 36 37 38 39 40 41 42 43 44 45 46 47 48 49 50
000
ASUS43 KFSD 041002
RWRSD

WEATHER ROUNDUP FOR SOUTH DAKOTA
NATIONAL WEATHER SERVICE SIOUX FALLS SD
400 AM CST WED MAR 04 2015

NOTE: "FAIR" INDICATES FEW OR NO CLOUDS BELOW 12,000 FEET WITH NO
SIGNIFICANT WEATHER AND/OR OBSTRUCTIONS TO VISIBILITY.


SDZ001>005-009-010-012>017-041100-
NORTHWEST AND NORTH CENTRAL SOUTH DAKOTA

CITY           SKY/WX    TMP DP  RH WIND       PRES   REMARKS
BUFFALO          N/A      2  -3  80 NW15      29.99R WCI -17
FAITH            N/A      3  -6  66 NW9       30.08R WCI -12
MOBRIDGE       MOCLDY     7  -1  70 NW15      30.07R WCI -10
$$

SDZ012>016-024>037-041>051-057-063-072>074-041100-
SOUTHWEST AND SOUTH CENTRAL SOUTH DAKOTA

CITY           SKY/WX    TMP DP  RH WIND       PRES   REMARKS
RAPID CTY ARPT CLEAR      1  -7  68 NW7       30.08S WCI -12
PIERRE         CLEAR      3  -4  72 W9        30.11S WCI -12
CUSTER         CLEAR     -1  -8  72 W12G21    29.88F WCI -18
ELLSWORTH AFB  PTCLDY     3  -7  63 NW8       30.06  WCI -10
PHILIP         CLEAR      3  -5  69 W13       30.14R WCI -14
PINE RIDGE     PTCLDY     1  -5  75 W3        30.11S
SPEARFISH      MOCLDY     7  -4  61 W14G21    30.03S WCI -10
WINNER         FAIR       3  -8  60 W10       30.13S WCI -12
$$

SDZ004>011-016>023-039-040-041100-
NORTHEAST SOUTH DAKOTA

CITY           SKY/WX    TMP DP  RH WIND       PRES   REMARKS
ABERDEEN       CLOUDY    -3  -9  75 CALM      30.13R
WATERTOWN      CLEAR     -9 -13  83 W7        30.06F WCI -24
SISSETON         N/A     -2 -10  69 NW9       30.10R WCI -18
$$

SDZ017-020-022-023-036>040-048>070-041100-
SOUTHEAST SOUTH DAKOTA

CITY           SKY/WX    TMP DP  RH WIND       PRES   REMARKS
SIOUX FALLS    CLEAR      1  -4  79 SW3       30.14F
HURON          CLEAR     -3  -7  82 SE3       30.14F
MITCHELL       CLEAR      3  -3  76 SW3       30.16F
YANKTON        PTCLDY     7  -2  66 NW5       30.20R WCI  -2
$$

ABBREVIATIONS USED IN REMARKS
   TC - TEMPERATURE IN CELSIUS
  WCI - WIND CHILL INDEX
   HX - HEAT INDEX
  VSB - VISIBILITY



USA.gov is the U.S. government's official web portal to all federal, state and local government web resources and services.